sat.trackr.live / text

‹ back to catalog

STARLINK-3967

NORAD 52636 · 2022-052AQ

PAYLOAD ACTIVE UNKNOWN

§ Identity

Operator
Country
US
Launch date
2022-05-14
Launch site
AFETR
Launch vehicle
Mass (kg)
RCS (m²)

Purposes: comms

External: N2YO · Heavens-Above · Gunter

§ Orbital elements

Epoch: 2026-05-25T01:54:17.458272Z

Period
95.44 min
Inclination
53.2146°
Eccentricity
0.0001301
Mean motion
15.08835403 rev/d
Perigee alt
538.9 km
Apogee alt
540.7 km
Semi-major
6,917.9 km
B*
6.9693e-6
RAAN
286.1940°
Arg perigee
91.3117°
Mean anomaly
268.8024°
Rev number
22,252

§ Raw data

STARLINK-39671 52636U 22052AQ  26145.07936873 -.00000177  00000+0  69693-5 0  99972 52636  53.2146 286.1940 0001301  91.3117 268.8024 15.08835403222522

JSON: /api/v1/satellites/52636 · /tle

For live sub-satellite position, see the globe view (requires WebGL).

§ Visibility from observer

Set your observer location to see the next 7 days of passes ≥ 10°. The values pass through the URL so the page stays shareable.

No JS? Fill the form by hand. The geolocation button needs JavaScript.